TimeCST,TemperatureF,Dew PointF,Humidity,Sea Level PressureIn,VisibilityMPH,Wind Direction,Wind SpeedMPH,Gust SpeedMPH,PrecipitationIn,Events,Conditions,WindDirDegrees,DateUTC
12:00 AM,71,59,56,29.83,12,East,13.8,,,,Scattered Clouds,100,2014-01-01 06:00:00
12:00 AM,71.6,62.6,73,30.00,6.2,East,13.8,-,N/A,,Partly Cloudy,100,2014-01-01 06:00:00
1:00 AM,71.6,59.0,64,29.98,6.2,East,11.5,23.0,N/A,,Partly Cloudy,100,2014-01-01 07:00:00
2:00 AM,69.8,59.0,68,29.96,6.2,East,9.2,-,N/A,,Partly Cloudy,90,2014-01-01 08:00:00
3:00 AM,71,58,55,29.76,12,East,11.5,,,,Scattered Clouds,100,2014-01-01 09:00:00
3:00 AM,71.6,59.0,64,29.95,6.2,East,11.5,-,N/A,,Partly Cloudy,100,2014-01-01 09:00:00
4:00 AM,69.8,59.0,68,29.94,6.2,East,11.5,23.0,N/A,,Partly Cloudy,100,2014-01-01 10:00:00
5:00 AM,69.8,59.0,68,29.95,6.2,East,12.7,-,N/A,,Partly Cloudy,100,2014-01-01 11:00:00
6:00 AM,70,59,60,29.81,12,East,11.5,,,,Scattered Clouds,100,2014-01-01 12:00:00
6:00 AM,69.8,59.0,68,29.97,6.2,East,11.5,23.0,N/A,,Partly Cloudy,100,2014-01-01 12:00:00
7:00 AM,71.6,59.0,64,29.99,6.2,East,13.8,-,N/A,,Partly Cloudy,90,2014-01-01 13:00:00
8:00 AM,75.2,57.2,53,30.01,6.2,East,13.8,25.3,N/A,,Partly Cloudy,100,2014-01-01 14:00:00
9:00 AM,77.0,59.0,54,30.00,6.2,East,17.3,28.8,N/A,,Partly Cloudy,100,2014-01-01 15:00:00
10:00 AM,80.6,57.2,45,30.00,6.2,East,17.3,28.8,N/A,,Partly Cloudy,90,2014-01-01 16:00:00
11:00 AM,78.8,59.0,51,29.99,6.2,ENE,13.8,25.3,N/A,,Partly Cloudy,70,2014-01-01 17:00:00
12:00 PM,80,58,36,29.79,12,East,16.1,,,,Scattered Clouds,80,2014-01-01 18:00:00
12:00 PM,80.6,57.2,45,29.97,6.2,East,16.1,28.8,N/A,,Partly Cloudy,80,2014-01-01 18:00:00
1:00 PM,78.8,60.8,54,29.94,6.2,East,12.7,24.2,N/A,,Scattered Clouds,100,2014-01-01 19:00:00
2:00 PM,80.6,59.0,48,29.92,6.2,East,17.3,29.9,N/A,,Scattered Clouds,100,2014-01-01 20:00:00
3:00 PM,76,58,43,29.73,12,East,13.8,,,,Scattered Clouds,90,2014-01-01 21:00:00
3:00 PM,75.2,57.2,53,29.91,6.2,East,13.8,-,N/A,,Mostly Cloudy,90,2014-01-01 21:00:00
4:00 PM,77.0,57.2,50,29.92,6.2,East,13.8,26.5,N/A,,Drizzle,80,2014-01-01 22:00:00
5:00 PM,75.2,57.2,53,29.94,6.2,East,12.7,25.3,N/A,,Scattered Clouds,80,2014-01-01 23:00:00
6:00 PM,71,58,55,29.79,12,ESE,12.7,,,,Scattered Clouds,110,2014-01-02 00:00:00
6:00 PM,71.6,59.0,64,29.93,6.2,ESE,12.7,-,N/A,,Mostly Cloudy,110,2014-01-02 00:00:00
7:00 PM,71.6,59.0,64,29.95,6.2,ESE,13.8,-,N/A,,Mostly Cloudy,110,2014-01-02 01:00:00
8:00 PM,69.8,59.0,68,29.98,6.2,ESE,10.4,-,N/A,,Mostly Cloudy,110,2014-01-02 02:00:00
9:00 PM,71,59,57,29.81,12,ESE,11.5,,,,Scattered Clouds,110,2014-01-02 03:00:00
9:00 PM,69.8,59.0,68,29.99,6.2,ESE,11.5,-,N/A,,Partly Cloudy,110,2014-01-02 03:00:00
10:00 PM,71.6,59.0,64,29.99,-9999.0,East,11.5,-,N/A,,Clear,80,2014-01-02 04:00:00
11:00 PM,69.8,59.0,68,29.98,6.2,East,9.2,-,N/A,,Partly Cloudy,100,2014-01-02 05:00:00